Location: Carrières
(48.9495°N, 2.0407°E)
Time: 18:24:56
(UTC+00:00)

Altair - Pass Details

Date: 22 April 2024
Orbit: 1502 x 1682 km, 47.2° (Epoch: 21 May)

Event Time Altitude Azimuth Distance (km) Brightness Sun altitude
Rises 22:47:03 0° 283° (WNW) 4,874 10.5 -26.9°
Reaches altitude 10° 22:50:15 10° 281° (W) 3,864 9.9 -27.0°
Maximum altitude 22:59:55 65° 203° (SSW) 1,714 7.4 -27.4°
Enters shadow 23:02:44 48° 145° (SE) 1,977 7.6 -27.5°
